Home   Weather   Kailua-Kona   Past weeks

Flag for USA Past Weather in Kailua-Kona, Hawaii, USA — Yesterday and Last 2 Weeks

Now
72 °F

Light rain. Passing clouds.


Feels Like: 65 °F
Forecast: 68 / 78 °F
Wind: No wind

Location: Keahole Airport

Current Time: Dec 10, 2016 at 10:18:49 pm

Latest Report: Dec 10, 2016 at 9:08 pm


Visibility: 10 mi

Pressure: 29.99 "Hg

Humidity: 100%

Dew Point: 72 °F

Location of Kailua-KonaLocation

Past Weather in Kailua-Kona — Graph

°F

Kailua-Kona Temperature Yesterday

Maximum temperature yesterday: 79 °F (at 10:53 am)
Minimum temperature yesterday: 71 °F (at 4:53 am)
Average temperature yesterday: 74 °F

High & Low Weather Summary for the Past Weeks

 TemperatureHumidityPressure
High83 °F (Nov 26, 10:53 am)100% (Dec 5, 1:53 am)30.06 "Hg (Dec 5, 1:53 am)
Low68 °F (Dec 5, 1:53 am)47% (Nov 28, 8:53 am)29.79 "Hg (Dec 3, 2:53 pm)
Average76 °F75%29.94 "Hg
* Reported Nov 25 8:53 pm — Dec 10 8:53 pm, Kailua-Kona, Weather by CustomWeather, © 2016

Note: Actual official high and low records may vary slightly from our data, if they occured in-between our weather recording intervals... More about our weather records

Advertising

Kailua-Kona Weather History for the Previous 24 Hours

Scroll right to see more
 ConditionsComfort  
Time TempWeatherWind HumidityBarometerVisibility
8:53 pm
Sat, Dec 10
73 °FLight rain. Passing clouds.5 mph97%29.99 "Hg10 mi
7:53 pm73 °FLight rain. Passing clouds.5 mph97%29.97 "Hg10 mi
6:53 pm73 °FRain. Passing clouds.7 mph97%29.96 "Hg9 mi
5:53 pm74 °FLight rain. Overcast.9 mph94%29.95 "Hg10 mi
4:53 pm74 °FLight rain. More clouds than sun.10 mph94%29.93 "Hg10 mi
3:53 pm76 °FMore clouds than sun.13 mph85%29.92 "Hg10 mi
2:53 pm76 °FOvercast.16 mph82%29.91 "Hg10 mi
1:53 pm76 °FOvercast.14 mph82%29.92 "Hg10 mi
12:53 pm76 °FScattered clouds.15 mph80%29.93 "Hg10 mi
11:53 am77 °FScattered clouds.13 mph77%29.95 "Hg10 mi
10:53 am76 °FBroken clouds.10 mph80%29.98 "Hg10 mi
9:53 am75 °FScattered clouds.13 mph82%29.98 "Hg10 mi
8:53 am73 °FLight rain. Partly sunny.12 mph84%29.98 "Hg10 mi
7:53 am71 °FLight rain. Scattered clouds.13 mph93%29.95 "Hg10 mi
6:53 am71 °FLight rain. Scattered clouds.13 mph93%29.95 "Hg8 mi
5:53 am72 °FRain. Mostly cloudy.7 mph87%29.94 "Hg8 mi
4:53 am74 °FOvercast.8 mph79%29.92 "Hg10 mi
3:53 am73 °FOvercast.7 mph84%29.92 "Hg10 mi
1:53 am76 °FPassing clouds.No wind69%29.95 "Hg10 mi
12:53 am75 °FClear.6 mph74%29.94 "Hg10 mi
11:53 pm
Fri, Dec 9
74 °FPassing clouds.8 mph76%29.96 "Hg10 mi
10:53 pm74 °FPassing clouds.12 mph76%29.96 "Hg10 mi
Weather by CustomWeather, © 2016

See weather overviewHow to use our weather pages